This is the latest recevied weather packets stored in our database for station/object EA1HTW-1. If no packets are shown the sender has not sent any weather packets the latest 10 day(s).
| Time | Temp. | Humidity | Pressure | Rain* | Wind** | Luminosity | Snow |
|---|---|---|---|---|---|---|---|
| 1777935564 | 7.22° C | 95% | 988.6 hPa | 0 mm | - | - | - |
| 1777934963 | 7.22° C | 95% | 988.7 hPa | 0 mm | - | - | - |
| 1777934364 | 7.78° C | 95% | 988.8 hPa | 0 mm | - | - | - |
| 1777932565 | 8.33° C | 94% | 988.7 hPa | 0 mm | - | - | - |
| 1777931964 | 8.33° C | 94% | 988.6 hPa | 0 mm | - | - | - |
| 1777931364 | 8.33° C | 94% | 988.9 hPa | 0 mm | - | - | - |
| 1777930763 | 8.89° C | 94% | 988.9 hPa | 0 mm | - | - | - |
| 1777928963 | 9.44° C | 93% | 988.9 hPa | 0 mm | - | - | - |
| 1777928364 | 9.44° C | 93% | 988.8 hPa | 0 mm | - | - | - |
| 1777927763 | 9.44° C | 93% | 988.8 hPa | 0 mm | - | - | - |
| 1777927164 | 9.44° C | 92% | 988.7 hPa | 0 mm | - | - | - |
| 1777926563 | 10° C | 91% | 988.5 hPa | 0.25 mm | - | - | - |
| 1777925963 | 10° C | 91% | 988.4 hPa | 0.25 mm | - | - | - |
| 1777925364 | 10° C | 91% | 988.2 hPa | 0.51 mm | - | - | - |
| 1777924797 | 10° C | 92% | 988.1 hPa | 0.51 mm | - | - | - |
| 1777924762 | 10° C | 92% | 988.1 hPa | 0.51 mm | - | - | - |
| 1777924163 | 10° C | 92% | 988 hPa | 1.27 mm | - | - | - |
| 1777922964 | 10° C | 91% | 987.9 hPa | 5.59 mm | - | - | - |
| 1777920561 | 10° C | 88% | 987.5 hPa | 5.33 mm | - | - | - |
| 1777919362 | 11.11° C | 90% | 987.3 hPa | 0.51 mm | - | - | - |
| 1777918163 | 11.67° C | 89% | 987.5 hPa | 1.78 mm | - | - | - |
| 1777917564 | 11.67° C | 88% | 987.5 hPa | 1.78 mm | - | - | - |
| 1777916964 | 11.67° C | 88% | 987.2 hPa | 2.03 mm | - | - | - |
| 1777916364 | 12.22° C | 88% | 987.3 hPa | 2.03 mm | - | - | - |
| 1777915164 | 11.11° C | 88% | 987.4 hPa | 2.03 mm | - | - | - |
* Rain latest hour (hover to see other rain measurements)
** Current wind speed in m/s (hover to see current wind gust speed)